H1 CPF  2 ESA 2024  9 18 10 262 01 galileo215
H2  1707901 7215    43055 2024  9 17 23 59 42 2024  9 22 23 59 42   900 1 1  0 0 0  1
H9
10 0 60570  86382.000000  0     -11829809.648     -26922380.249       3387185.369
10 0 60571    882.000000  0     -11667199.401     -26524323.829       6049053.696
10 0 60571   1782.000000  0     -11345104.018     -25942023.733       8635689.001
10 0 60571   2682.000000  0     -10843712.394     -25202506.509      11114926.306
10 0 60571   3582.000000  0     -10148458.924     -24336338.561      13455939.749
10 0 60571   4482.000000  0      -9250542.940     -23376652.783      15629625.608
10 0 60571   5382.000000  0      -8147268.144     -22358097.934      17608963.658
10 0 60571   6282.000000  0      -6842191.388     -21315743.736      19369352.383
10 0 60571   7182.000000  0      -5345076.047     -20283975.998      20888913.956
10 0 60571   8082.000000  0      -3671651.416     -19295416.375      22148765.236
10 0 60571   8982.000000  0      -1843185.572     -18379900.539      23133251.529
10 0 60571   9882.000000  0        114115.020     -17563546.708      23830140.277
10 0 60571  10782.000000  0       2169860.495     -16867943.625      24230772.353
10 0 60571  11682.000000  0       4290363.676     -16309483.314      24330169.157
10 0 60571  12582.000000  0       6439629.717     -15898859.446      24127094.225
10 0 60571  13482.000000  0       8580418.522     -15640746.932      23624068.617
10 0 60571  14382.000000  0      10675346.878     -15533672.739      22827339.889
10 0 60571  15282.000000  0      12687996.030     -15570081.940      21746805.009
10 0 60571  16182.000000  0      14583990.215     -15736596.922      20395888.118
10 0 60571  17082.000000  0      16332012.555     -16014461.642      18791374.587
10 0 60571  17982.000000  0      17904726.679     -16380157.027      16953203.356
10 0 60571  18882.000000  0      19279575.303     -16806168.287      14904220.033
10 0 60571  19782.000000  0      20439430.877     -17261880.073      12669893.754
10 0 60571  20682.000000  0      21373077.956     -17714571.470      10278001.244
10 0 60571  21582.000000  0      22075512.249     -18130479.597       7758281.957
10 0 60571  22482.000000  0      22548046.984     -18475898.438       5142068.542
10 0 60571  23382.000000  0      22798223.301     -18718278.384       2461897.237
10 0 60571  24282.000000  0      22839527.499     -18827291.926       -248896.963
10 0 60571  25182.000000  0      22690924.041     -18775831.956      -2956595.283
10 0 60571  26082.000000  0      22376219.017     -18540911.276      -5627515.082
10 0 60571  26982.000000  0      21923274.077     -18104434.937      -8228429.417
10 0 60571  27882.000000  0      21363095.579     -17453821.105     -10726980.978
10 0 60571  28782.000000  0      20728827.574     -16582450.817     -13092085.172
10 0 60571  29682.000000  0      20054680.320     -15489932.436     -15294317.309
10 0 60571  30582.000000  0      19374827.991     -14182172.391     -17306279.023
10 0 60571  31482.000000  0      18722310.232     -12671249.887     -19102939.356
10 0 60571  32382.000000  0      18127972.051     -10975099.407     -20661946.258
10 0 60571  33282.000000  0      17619475.348      -9117010.853     -21963904.655
10 0 60571  34182.000000  0      17220413.090      -7124962.906     -22992617.636
10 0 60571  35082.000000  0      16949553.924      -5030810.338     -23735287.803
10 0 60571  35982.000000  0      16820240.913      -2869350.657     -24182676.330
10 0 60571  36882.000000  0      16839963.248       -677299.139     -24329217.768
10 0 60571  37782.000000  0      17010114.357       1507795.766     -24173089.207
10 0 60571  38682.000000  0      17325944.000       3648662.847     -23716232.952
10 0 60571  39582.000000  0      17776705.856       5709409.757     -22964332.424
10 0 60571  40482.000000  0      18345995.992       7656581.483     -21926741.580
10 0 60571  41382.000000  0      19012271.623       9460142.676     -20616368.698
10 0 60571  42282.000000  0      19749533.907      11094353.204     -19049515.940
10 0 60571  43182.000000  0      20528153.394      12538509.627     -17245676.648
10 0 60571  44082.000000  0      21315812.239      13777529.484     -15227292.867
10 0 60571  44982.000000  0      22078533.638      14802360.207     -13019476.051
10 0 60571  45882.000000  0      22781766.171      15610199.932     -10649694.455
10 0 60571  46782.000000  0      23391489.012      16204523.412      -8147431.051
10 0 60571  47682.000000  0      23875303.297      16594912.320      -5543816.278
10 0 60571  48582.000000  0      24203475.341      16796695.386      -2871240.206
10 0 60571  49482.000000  0      24349898.942      16830409.775       -162948.995
10 0 60571  50382.000000  0      24292946.502      16721100.738       2547369.267
10 0 60571  51282.000000  0      24016182.232      16497481.628       5226004.134
10 0 60571  52182.000000  0      23508915.010      16190980.779       7839642.497
10 0 60571  53082.000000  0      22766573.533      15834705.263      10355783.122
10 0 60571  53982.000000  0      21790891.975      15462354.137      12743140.847
10 0 60571  54882.000000  0      20589900.306      15107115.384      14972035.378
10 0 60571  55782.000000  0      19177719.582      14800581.177      17014759.859
10 0 60571  56682.000000  0      17574168.581      14571715.568      18845924.661
10 0 60571  57582.000000  0      15804194.106      14445906.949      20442772.171
10 0 60571  58482.000000  0      13897142.727      14444135.027      21785458.728
10 0 60571  59382.000000  0      11885896.699      14582278.385      22857300.296
10 0 60571  60282.000000  0       9805901.016      14870584.330      23644978.902
10 0 60571  61182.000000  0       7694111.902      15313317.626      24138707.369
10 0 60571  62082.000000  0       5587899.511      15908599.109      24332350.356
10 0 60571  62982.000000  0       3523938.974      16648439.280      24223500.277
10 0 60571  63882.000000  0       1537124.318      17518965.850      23813507.174
10 0 60571  64782.000000  0       -340460.956      18500838.200      23107462.192
10 0 60571  65682.000000  0      -2080484.618      19569835.846      22114134.822
10 0 60571  66582.000000  0      -3659188.500      20697602.602      20845864.659
10 0 60571  67482.000000  0      -5058067.729      21852523.235      19318408.947
10 0 60571  68382.000000  0      -6264385.271      23000705.264      17550747.717
10 0 60571  69282.000000  0      -7271505.764      24107035.245      15564848.860
10 0 60571  70182.000000  0      -8079038.277      25136276.511      13385395.957
10 0 60571  71082.000000  0      -8692783.567      26054174.031      11039482.177
10 0 60571  71982.000000  0      -9124487.548      26828531.766       8556273.991
10 0 60571  72882.000000  0      -9391408.747      27430228.747       5966648.838
10 0 60571  73782.000000  0      -9515713.363      27834141.973       3302811.239
10 0 60571  74682.000000  0      -9523716.956      28019947.143        597892.143
10 0 60571  75582.000000  0      -9444996.645      27972772.034      -2114463.481
10 0 60571  76482.000000  0      -9311401.734      27683681.958      -4800515.618
10 0 60571  77382.000000  0      -9155993.938      27149981.993      -7426849.487
10 0 60571  78282.000000  0      -9011950.556      26375326.453      -9960791.822
10 0 60571  79182.000000  0      -8911465.126      25369632.079     -12370817.910
10 0 60571  80082.000000  0      -8884680.189      24148797.638     -14626944.288
10 0 60571  80982.000000  0      -8958685.742      22734238.678     -16701102.139
10 0 60571  81882.000000  0      -9156614.923      21152251.959     -18567486.759
10 0 60571  82782.000000  0      -9496865.371      19433229.471     -20202878.706
10 0 60571  83682.000000  0      -9992470.803      17610746.601     -21586932.680
10 0 60571  84582.000000  0     -10650642.564      15720552.964     -22702430.536
10 0 60571  85482.000000  0     -11472495.625      13799497.453     -23535495.346
10 0 60571  86382.000000  0     -12452967.694      11884421.084     -24075763.874
10 0 60572    882.000000  0     -13580934.051      10011052.212     -24316515.345
10 0 60572   1782.000000  0     -14839514.603       8212938.612     -24254754.969
10 0 60572   2682.000000  0     -16206563.631       6520449.739     -23891251.165
10 0 60572   3582.000000  0     -17655326.982       4959880.286     -23230526.050
10 0 60572   4482.000000  0     -19155246.202       3552682.996     -22280799.297
10 0 60572   5382.000000  0     -20672884.540       2314854.616     -21053886.034
10 0 60572   6282.000000  0     -22172945.865       1256494.123     -19565050.018
10 0 60572   7182.000000  0     -23619354.673        381546.938     -17832813.877
10 0 60572   8082.000000  0     -24976363.396       -312256.967     -15878728.739
10 0 60572   8982.000000  0     -26209652.344       -833269.242     -13727106.072
10 0 60572   9882.000000  0     -27287387.853      -1195597.903     -11404715.059
10 0 60572  10782.000000  0     -28181205.470      -1418600.982      -8940449.253
10 0 60572  11682.000000  0     -28867087.354      -1526215.058      -6364966.682
10 0 60572  12582.000000  0     -29326106.401      -1546139.886      -3710307.898
10 0 60572  13482.000000  0     -29545013.733      -1508904.800      -1009496.775
10 0 60572  14382.000000  0     -29516651.166      -1446846.356       1703870.916
10 0 60572  15282.000000  0     -29240175.715      -1393029.401       4396045.976
10 0 60572  16182.000000  0     -28721089.147      -1380145.566       7033546.021
10 0 60572  17082.000000  0     -27971071.679      -1439423.858       9583572.196
10 0 60572  17982.000000  0     -27007625.101      -1599587.643      12014417.145
10 0 60572  18882.000000  0     -25853536.548      -1885890.814      14295859.136
10 0 60572  19782.000000  0     -24536179.782      -2319263.464      16399537.423
10 0 60572  20682.000000  0     -23086675.905      -2915593.881      18299304.216
99